C/2020 O2 ( Amaral )

Japanese version
Home page
Updated on September 18, 2021

---------------------------------------------------------------------

* Profile

Discovery Date July 23, 2020
Magnitude 18.1 mag
Discoverer Leonardo S. Amaral (Rio de Janeiro, Brazil)

* Pictures

* Orbital Elements

Epoch 2021 Aug. 14.0 TT = JDT 2459440.5
T 2021 Aug. 28.50630 TT                                 Rudenko
q   4.8621598            (2000.0)            P               Q
z  -0.0005111      Peri.   10.29516     -0.17092562     +0.34091369
 +/-0.0000011      Node   256.75582     -0.95798037     -0.27684577
e   1.0024849      Incl.   71.74734     -0.23034331     +0.89840652
From 516 observations 2020 July 23-2021 Sept. 1, mean residual 0".5.

* Finding Charts

* Magnitudes Graph

        m1 = -1.2 + 5 log d + 20.0 log r

---------------------------------------------------------------------

The orbital elements are published on M.P.E.C. 2021-R75.
The charts are made with StellaNavigator Ver.10 (AstroArts).
The magnitudes graphs are made with Comet for Windows.

---------------------------------------------------------------------

Copyright(C) Seiichi Yoshida (comet@aerith.net). All rights reserved.